This is the latest recevied weather packets stored in our database for station/object N8VDS-10. If no packets are shown the sender has not sent any weather packets the latest 10 day(s).
| Time | Temp. | Humidity | Pressure | Rain* | Wind** | Luminosity | Snow |
|---|---|---|---|---|---|---|---|
| 1777589793 | 10.56° C | 39% | 1017.3 hPa | 0 mm | - | 177 W/m² | - |
| 1777589492 | 10.56° C | 42% | 1017.2 hPa | 0 mm | - | 79 W/m² | - |
| 1777589192 | 10.56° C | 41% | 1017.3 hPa | 0 mm | - | 70 W/m² | - |
| 1777588888 | 10.56° C | 40% | 1017.4 hPa | 0 mm | - | 103 W/m² | - |
| 1777588584 | 10° C | 40% | 1017.3 hPa | 0 mm | - | 113 W/m² | - |
| 1777588280 | 10° C | 40% | 1017.3 hPa | 0 mm | - | 113 W/m² | - |
| 1777587975 | 10° C | 41% | 1017.3 hPa | 0 mm | - | 97 W/m² | - |
| 1777587672 | 10° C | 41% | 1017.3 hPa | 0 mm | - | 101 W/m² | - |
| 1777587371 | 10° C | 41% | 1017.3 hPa | 0 mm | - | 129 W/m² | - |
| 1777587068 | 10° C | 43% | 1017.4 hPa | 0 mm | - | 116 W/m² | - |
| 1777586763 | 10° C | 42% | 1017.4 hPa | 0 mm | - | 102 W/m² | - |
| 1777586459 | 10° C | 42% | 1017.3 hPa | 0 mm | - | 119 W/m² | - |
| 1777586154 | 10° C | 43% | 1017.1 hPa | 0 mm | - | 112 W/m² | - |
| 1777585852 | 10° C | 42% | 1017.4 hPa | 0 mm | - | 122 W/m² | - |
| 1777585552 | 10° C | 42% | 1017.4 hPa | 0 mm | - | 121 W/m² | - |
| 1777585248 | 10.56° C | 44% | 1017.3 hPa | 0 mm | - | 128 W/m² | - |
| 1777584943 | 10.56° C | 42% | 1017.2 hPa | 0 mm | - | 181 W/m² | - |
| 1777584641 | 10° C | 43% | 1017.4 hPa | 0 mm | - | 181 W/m² | - |
| 1777584337 | 10° C | 43% | 1017.3 hPa | 0 mm | - | 136 W/m² | - |
| 1777584034 | 10° C | 44% | 1017.3 hPa | 0 mm | - | 203 W/m² | - |
| 1777583728 | 10.56° C | 43% | 1017.3 hPa | 0 mm | - | 254 W/m² | - |
| 1777583427 | 10° C | 46% | 1017.5 hPa | 0 mm | - | 205 W/m² | - |
| 1777583127 | 10° C | 43% | 1017.4 hPa | 0 mm | - | 178 W/m² | - |
| 1777582823 | 10.56° C | 43% | 1017.4 hPa | 0 mm | - | 186 W/m² | - |
| 1777582520 | 10.56° C | 43% | 1017.5 hPa | 0 mm | - | 206 W/m² | - |
* Rain latest hour (hover to see other rain measurements)
** Current wind speed in m/s (hover to see current wind gust speed)